This is the latest recevied weather packets stored in our database for station/object KA4YMY. If no packets are shown the sender has not sent any weather packets the latest 1 day(s).
| Time | Temp. | Humidity | Pressure | Rain* | Wind** | Luminosity | Snow |
|---|---|---|---|---|---|---|---|
| 1778019916 | 25° C | 40% | 1012.6 hPa | 0 mm | 1.34 m/s, 158° | - | - |
| 1778019316 | 25° C | 41% | 1012.7 hPa | 0 mm | 1.34 m/s, 158° | - | - |
| 1778018717 | 25° C | 41% | 1012.8 hPa | 0 mm | 2.24 m/s, 158° | - | - |
| 1778018126 | 25.56° C | 42% | 1012.9 hPa | 0 mm | 0.89 m/s, 158° | - | - |
| 1778017516 | 25° C | 42% | 1013 hPa | 0 mm | 1.34 m/s, 158° | - | - |
| 1778016916 | 25° C | 40% | 1013.2 hPa | 0 mm | 0.89 m/s, 158° | - | - |
| 1778016316 | 25° C | 41% | 1013.2 hPa | 0 mm | 1.34 m/s, 158° | - | - |
| 1778015716 | 25.56° C | 40% | 1013.3 hPa | 0 mm | 1.34 m/s, 158° | - | - |
| 1778015116 | 25.56° C | 40% | 1013.2 hPa | 0 mm | 1.34 m/s, 158° | - | - |
| 1778014516 | 26.11° C | 41% | 1013.3 hPa | 0 mm | 0.45 m/s, 90° | - | - |
| 1778013916 | 25.56° C | 42% | 1013.3 hPa | 0 mm | 1.34 m/s, 158° | - | - |
| 1778013316 | 25.56° C | 41% | 1013.5 hPa | 0 mm | 0.89 m/s, 158° | - | - |
| 1778012716 | 25.56° C | 39% | 1013.6 hPa | 0 mm | 1.79 m/s, 135° | - | - |
| 1778012116 | 25.56° C | 41% | 1013.7 hPa | 0 mm | 0.89 m/s, 180° | - | - |
| 1778011516 | 25.56° C | 42% | 1013.8 hPa | 0 mm | 1.34 m/s, 158° | - | - |
| 1778010916 | 26.11° C | 42% | 1014.1 hPa | 0 mm | 0.89 m/s, 158° | - | - |
| 1778010316 | 26.11° C | 41% | 1014 hPa | 0 mm | 1.34 m/s, 158° | - | - |
| 1778009716 | 25.56° C | 40% | 1014.1 hPa | 0 mm | 1.79 m/s, 158° | - | - |
| 1778009116 | 25.56° C | 40% | 1014.5 hPa | 0 mm | 0.89 m/s, 158° | - | - |
| 1778008516 | 25.56° C | 40% | 1014.7 hPa | 0 mm | 1.79 m/s, 158° | - | - |
| 1778007916 | 25.56° C | 43% | 1014.8 hPa | 0 mm | 0.89 m/s, 135° | - | - |
| 1778007316 | 26.11° C | 42% | 1014.9 hPa | 0 mm | 1.79 m/s, 158° | - | - |
| 1778006716 | 26.67° C | 44% | 1015 hPa | 0 mm | 1.34 m/s, 158° | - | - |
| 1778006116 | 26.11° C | 43% | 1015.3 hPa | 0 mm | 0.45 m/s, 135° | - | - |
| 1778005516 | 26.67° C | 42% | 1015.6 hPa | 0 mm | 0.89 m/s, 158° | - | - |
* Rain latest hour (hover to see other rain measurements)
** Current wind speed in m/s (hover to see current wind gust speed)